Regional Weather Roundup
Issued by NWS Cleveland, OH

Home | Current Version | Previous Version | Graphics & Text | Print | Product List | Glossary On
Versions: 1 2 3 4 5 6 7 8 9 10 11 12 13 14 15 16 17 18 19 20 21 22 23 24 25 26 27 28 29 30 31 32 33 34 35 36 37 38 39 40 41 42 43 44 45 46 47 48 49 50
000
ASUS41 KCLE 282310
RWRCLE
OHIO REGIONAL WEATHER ROUNDUP
NATIONAL WEATHER SERVICE WILMINGTON, OH
700 PM EDT MON JUL 28 2014

NOTE: "FAIR" INDICATES FEW OR NO CLOUDS BELOW 12,000 FEET WITH NO
SIGNIFICANT WEATHER AND/OR OBSTRUCTIONS TO VISIBILITY.

OHZ001>008-015>018-024>027-034-035-043-044-290000-
   NORTHWEST OHIO

CITY           SKY/WX    TMP DP  RH WIND       PRES   REMARKS
DEFIANCE       SUNNY     70  54  56 W9G17     29.96S
FINDLAY        CLOUDY    71  53  52 N9        29.93S
TOLEDO EXPRESS PTSUNNY   69  51  52 NW13G22   29.95S
TOLEDO METCALF CLOUDY    70  49  47 NW10      29.95S
LIMA           PTSUNNY   71  55  56 W13       29.95F
$$

OHZ009>014-019>023-028>033-038-089-290000-
   NORTHEAST OHIO

CITY           SKY/WX    TMP DP  RH WIND       PRES   REMARKS
CLE-HOPKINS    PTSUNNY   64  52  64 N14       29.96S
CLE-LAKEFRONT  PTSUNNY   65  52  62 N17G23    29.92S
CUY CO. ARPT   PTSUNNY   61  55  82 N14       29.94R
LORAIN-ELYRIA  CLOUDY    67  53  61 N8        29.95S
ASHTABULA      CLOUDY    61  50  67 N12G24    29.93R
AKRON-CANTON   PTSUNNY   65  51  60 N12       29.93R
WOOSTER        PTSUNNY   66  53  63 N12       29.94S
MANSFIELD      CLOUDY    64  55  72 N9        29.95R
YOUNGSTOWN     CLOUDY    63  53  70 NW17G24   29.92R
$$

OHZ042-051>053-060>062-070>072-077>081-290000-
  SOUTHWEST OHIO

CITY           SKY/WX    TMP DP  RH WIND       PRES   REMARKS
CINC-COVINGTON PTSUNNY   72  56  57 W13       29.98S
CINC-LUNKEN    MOSUNNY   72  57  59 NW10      29.97S
HAMILTON       SUNNY     73  56  54 NW15      29.98R
DAYTON         PTSUNNY   71  54  54 NW13      29.97F
WRIGHT-PAT AFB SUNNY     72  54  53 W13       29.95F
DAYTON GENERAL MOSUNNY   71  55  56 NW9G17    29.96S
WILMINGTON     MOSUNNY   72  55  55 N10       29.95F
$$

OHZ036-037-039>041-045>050-054>059-063>069-073>076-082>088-290000-
  CENTRAL AND SOUTHEAST OHIO

CITY           SKY/WX    TMP DP  RH WIND       PRES   REMARKS
COLUMBUS       PTSUNNY   74  52  46 NW13      29.92S
OSU AIRPORT    MOSUNNY   71  52  50 N9        29.93S
BOLTON FIELD   MOSUNNY   70  55  60 NW10      29.94S
RICKENBACK AFB PTSUNNY   74  50  42 NW13      29.92F
NEWARK         CLOUDY    70  54  56 N6        29.92S
MARION         CLOUDY    70  53  54 N10       29.94S
LANCASTER      PTSUNNY   72  55  55 NW6       29.93S
ZANESVILLE     PTSUNNY   69  54  58 N6        29.92R
NEW PHILLY     MOSUNNY   67  53  61 N12       29.93R
$$


USA.gov is the U.S. government's official web portal to all federal, state and local government web resources and services.